Location: Napier
(39.4830°S, 176.9170°E)
Time: 01:34:15
(UTC+13:00)

Cosmos 1271 Rocket - Pass Details

Date: 24 January 2019
Orbit: 498 x 547 km, 81.2° (Epoch: 19 February)

Event Time Altitude Azimuth Distance (km) Brightness Sun altitude
Rises 20:58:31 0° 187° (S) 2,740 7.0 -4.7°
Reaches altitude 10° 21:00:42 10° 185° (S) 1,844 6.0 -5.0°
Maximum altitude 21:04:46 71° 100° (E) 591 2.8 -5.7°
Drops below altitude 10° 21:08:47 10° 15° (NNE) 1,827 5.1 -6.4°
Sets 21:10:57 0° 13° (NNE) 2,712 5.9 -6.7°
